Simultaneous Nadir Overpasses (SNOs) Predictions

Prediction of SNOs between NOAA-19 and METOP-C Satellite Orbit:

Table of predicted SNOs for the next 14.0 days since TLE Epoch: 7/20/2024
Index Date (NOAA-19) Time (NOAA-19) Lat,Lon (NOAA-19) SZA (NOAA-19 ) Date (METOP-C) Time (METOP-C) Lat,Lon (METOP-C) SZA (METOP-C ) Distance(km) Time Diff (sec)
1 07/31/2024 12:07:00 77.95, 6.32 59.91 07/31/2024 12:07:56 77.96, 6.35 59.92 1.04 56
2 07/31/2024 12:57:51 -78.09, 174.38 119.93 07/31/2024 12:58:35 -78.09, 174.34 119.93 1.19 44
3 07/31/2024 13:48:50 78.25, -17.45 60.27 07/31/2024 13:49:10 78.27, -17.35 60.29 2.81 20
4 07/31/2024 14:39:41 -78.39, 150.64 119.57 07/31/2024 14:39:49 -78.39, 150.66 119.56 0.65 8
5 07/31/2024 15:30:38 78.61, -40.66 60.72 07/31/2024 15:30:23 78.60, -40.74 60.71 2.04 15
6 07/31/2024 16:21:33 -78.60, 126.50 119.29 07/31/2024 16:21:05 -78.61, 126.60 119.28 2.43 28
7 07/31/2024 17:12:30 78.82, -64.74 61.00 07/31/2024 17:11:39 78.82, -64.75 60.99 0.31 51



Historial Predications of SNOs between NOAA-19 and METOP-C
